DECAYED
Showing default

ION SCV-003, 48912 (Decayed)

Orbit data source: Space-Track

ION SCV-003, 48912 was a payload satellite owned by D-ORBIT (IT) in LEO that was launched on Wed, 30 Jun 2021 UTC via an FALCON 9 launch vehicle from the Air Force Eastern Test Range (AFETR). Payload-class satellites include a variety of spacecraft equipped with specific instruments for various scientific and technological missions. These include communications satellites like Starlink; space stations such as the ISS; scientific satellites like the Hubble; Earth observation satellites from companies like Planet Labs, Umbra, and HawkEye 360; GPS; miniature CubeSats for education and research; and military/defense satellites.

Not visible in the next 10 days
Identifier
48912, 2021-059AK
Orbit
Decayed
Country
Flag of ITIT
Related business
Manufacturer
D-ORBIT
Mission
Decayed Commercial Technology
Bus & Motor
ION-SC, PM200
Mass
220 kg wet, 150 kg dry
Launch date (UTC)
2021-06-30 (4 years ago)
Launch vehicle
FALCON 9
Launch site
Air Force Eastern Test Range (AFETR)
Object type
Payload
Rocket body
Debris
Shape & HBR
Box, 0.2 m
Radar Cross Section
0.240 m², Large (>1 m²)

Expand to show TLE details & history
Last TLE update: 9 months ago

TLE from 9 months ago
0 ION SCV-003
1 48912U 21059AK  24343.90367833  .30299551  29007-5  15470-3 0  9993
2 48912  97.5956 147.2839 0008524 244.8326 251.9010 16.55712356192718
Epoch: 2024-12-08T21:41Z
TLE epoch observation values (Epoch: 2024-12-08T21:41:17.807Z)
Latitude
42.98728°
Longitude
-69.07643°
Altitude
132.583 km
Speed
7.83 km/s
True Right ascension
22h 17m 31s
True Declination
42° 47' 57"
Sunlit
Object was in daylight at epoch
Visualization orbit readout
Latitude
Unknown
Longitude
Unknown
Altitude
Unknown
Speed
Unknown
Apparent Right ascension
Unknown
Apparent Declination
Unknown
Sunlit
N/A
Visualization observer readout
Local Sidereal Time
19:18:47
Azimuth
Unknown
Elevation
Unknown
Doppler factor
Unknown
Orbital elements
Apogee altitude
126.672 km
Perigee altitude
115.593 km
Semi-major axis
6,499.27 km
Eccentricity
0.00085
Inclination
97.5956°
RAAN
147.2839°
Arg. of periapsis
244.8326°
True anomaly
251.80819°
Mean anomaly
251.901°
Eccentric anomaly
251.85459°
Mean motion
4.14235 °/min
Orbital period
86.91 mins
BSTAR
0.0001547
Loading maneuver chart data...
Computing Atmospheric mass density...
Loading historical data...
Loading historical data...
Loading historical data...
Loading historical data...
Loading historical data...
Loading historical data...
Loading historical data...

Documentation

Showing up to 5 results
|